Regional Weather Roundup
Issued by NWS Albany, NY

Home | Current Version | Previous Version | Graphics & Text | Print | Product List | Glossary Off
Versions: 1 2 3 4 5 6 7 8 9 10 11 12 13 14 15 16 17 18 19 20 21 22 23 24 25 26 27 28 29 30 31 32 33 34 35 36 37 38 39 40 41 42 43 44 45 46 47 48 49 50

000
ASUS41 KALY 310610
RWRALY

NEW YORK STATE HOURLY WEATHER ROUNDUP
NATIONAL WEATHER SERVICE ALBANY NY
200 AM EDT FRI JUL 31 2015

NOTE: "FAIR" INDICATES FEW OR NO CLOUDS BELOW 12,000 FEET WITH NO
SIGNIFICANT WEATHER AND/OR NO OBSTRUCTIONS TO VISIBILITY.

NYZ032-033-038>043-046>054-057>066-NYZ062>081-310700-
EAST


CITY           SKY/WX    TMP DP  RH WIND       PRES   REMARKS
ALBANY         PTCLDY    68  61  78 SW5       29.82S
GLENS FALLS    MOCLDY    65  60  84 E3        29.80S
POUGHKEEPSIE   PTCLDY    67  65  93 CALM      29.83S
NEWBURGH       PTCLDY    68  66  94 W7        29.87S
MONTGOMERY     PTCLDY    66  63  90 CALM      29.86S
WHITE PLAINS   PTCLDY    74  72  93 W7        29.84S FOG
ISLIP          PTCLDY    73  72  96 W3        29.80F
NEW YORK CITY  PTCLDY    77  72  84 NW7       29.83S
CENTRAL PARK   CLEAR     76  72  87 W5        29.87S FOG
$$

NYZ005>009-017-018-044>046-055-056-310700-
CENTRAL


CITY           SKY/WX    TMP DP  RH WIND       PRES   REMARKS
FULTON         PTCLDY    68  61  78 SW5       29.83F
SYRACUSE       PTCLDY    71  61  70 SW10      29.83F
ROME           CLEAR     63  61  93 CALM      29.85S
ELMIRA         CLEAR     61  58  90 CALM      29.90F
BINGHAMTON     MOCLDY    65  55  70 SW6       29.91F
MONTICELLO     CLEAR     63  61  94 W5        29.92S
$$

NYZ026>034-041>043-310700-
NORTH


CITY           SKY/WX    TMP DP  RH WIND       PRES   REMARKS
WATERTOWN      MOCLDY    67  64  90 S6        29.79F
FORT DRUM      NOT AVBL
MASSENA        CLEAR     69  55  60 SW7       29.75S
SARANAC LAKE   CLEAR     61  55  81 SW7       29.80F
PLATTSBURGH    CLEAR     65  60  84 S3        29.73F
$$

NYZ001>004-010>016-019>021-310700-
WEST


CITY           SKY/WX    TMP DP  RH WIND       PRES   REMARKS
NIAGARA FALLS  CLEAR     68  58  70 W9        29.88R
BUFFALO        PTCLDY    73  60  63 W9        29.88S
DUNKIRK        PTCLDY    69  65  86 SW5       29.91S
JAMESTOWN      PTCLDY    63  55  77 W9        29.97S
WELLSVILLE     CLEAR     65  55  70 MISG      29.98F
ROCHESTER      PTCLDY    67  63  87 SW9       29.86S
PENN YAN       CLEAR     67  60  78 SW6       29.89F
$$

             KEY
       WCI = WIND CHILL INDEX
       VSB = VISIBILITY
       HX  = HEAT INDEX
$$



USA.gov is the U.S. government's official web portal to all federal, state and local government web resources and services.